Miscellaneous Local Product
Issued by NWS North Platte, NE

Home | Current Version | Previous Version | Graphics & Text | Print | Product List | Glossary On
Versions: 1 2 3 4 5 6 7 8 9 10 11 12 13 14 15 16 17 18 19 20 21 22 23 24 25 26 27 28 29 30 31 32 33 34 35 36 37 38 39 40 41 42 43 44 45 46 47 48 49 50
000
AXUS43 KLBF 201510
MISLBF


WESTERN AND NORTH CENTRAL NEBRASKA HOURLY WEATHER ROUNDUP
NATIONAL WEATHER SERVICE NORTH PLATTE NE
900 AM CST SAT DEC 20 2014

***STATIONS NOT REPORTING VARIABLES SUCH AS SKY/WEATHER OR
PRESSURE ARE PROVIDED BY THE NEBRASKA DEPARTMENT OF
ROADS...RAWS...AND APRS NETWORKS...AND ARE NOT UNDER
NATIONAL WEATHER SERVICE QUALITY CONTROL***

...OBSERVATIONS IN AND NEAR THE EASTERN PANHANDLE OF NEBRASKA...

CITY           SKY/WX    TMP DP  RH WIND       PRES   REMARKS
PINE RIDGE     CLOUDY    30  21  69 W7        29.93S WCI  23
CHADRON        CLOUDY    27  21  78 SW9       29.94F WCI  18
ALLIANCE       MOCLDY    13   9  84 W6        29.95S WCI   4
SIDNEY         CLOUDY    26  19  74 W8        29.99S WCI  18
WHITECLAY        N/A     22  17  78 E3          N/A
CRESCENT LAKE    N/A     24  17  75 SW5         N/A  WCI  18
LISCO            N/A     17  12  80 W5          N/A  WCI  10
BIG SPRINGS      N/A     20  17  87 W10         N/A  WCI   9
$$

...OBSERVATIONS IN NORTH CENTRAL NEBRASKA...

CITY           SKY/WX    TMP DP  RH WIND       PRES   REMARKS
VALENTINE      PTCLDY    14  12  92 CALM      29.95F
THEDFORD       CLEAR     23  20  88 CALM      29.98S
AINSWORTH      PTCLDY    23  17  78 SW5       29.96S WCI  17
O`NEILL        PTCLDY   N/A N/A N/A CALM      30.01F
BROKEN BOW     CLEAR     21  17  84 CALM      30.00S
BROWNLEE         N/A     22  15  74 S6          N/A  WCI  15
SPRINGVIEW       N/A     10   7  89 CALM        N/A
BREWSTER         N/A     20  19  93 CALM        N/A
ROSE             N/A     24  24 100 MISG        N/A
SARGENT          N/A     14  13  95 CALM        N/A
COMSTOCK         N/A     22  21  93 CALM        N/A
CHAMBERS         N/A     17  15  93 CALM        N/A
EWING            N/A     26  25  97 CALM        N/A
$$

...OBSERVATIONS IN SOUTHWEST NEBRASKA AND FAR NORTHEAST COLORADO...

CITY           SKY/WX    TMP DP  RH WIND       PRES   REMARKS
WRAY           FAIR      22  18  84 W7        30.02S WCI  14
HOLYOKE        FAIR      25  19  80 W9        30.01S WCI  15
IMPERIAL       CLEAR     20  15  81 CALM      30.01S
OGALLALA       CLEAR     17  15  90 W8        30.01R WCI   7
NORTH PLATTE   PTCLDY    19  16  88 CALM      30.01S FOG
MCCOOK         CLEAR     23  20  88 CALM      30.04S
LEXINGTON      CLEAR     23  22  93 W5        30.03R FOG     WCI  17
PAXTON           N/A     18  16  91 W3          N/A
BRADY            N/A     18  16  90 CALM        N/A
GOTHENBURG       N/A     24  20  84 CALM        N/A
CALLAWAY         N/A     26  25  94 CALM        N/A
$$

...NORTH PLATTE AREA...

CITY           SKY/WX    TMP DP  RH WIND       PRES   REMARKS
AIRPORT        PTCLDY    19  16  88 CALM      30.01S FOG
DOWNTOWN         N/A     21  18  88 CALM        N/A
$$

...SOME WEATHER OBSERVATIONS FROM AROUND THE REGION...

CITY           SKY/WX    TMP DP  RH WIND       PRES   REMARKS
DENVER         CLOUDY    37  17  44 SW9       29.97S WCI  30
LARAMIE        CLOUDY    25  18  74 SW13      29.99R WCI  14
CHEYENNE       CLOUDY    36  18  48 W10       29.99R WCI  28
SCOTTSBLUFF    MOCLDY    19  14  81 CALM      29.98R
RAPID CITY     CLOUDY    36  23  59 NW7       29.91R WCI  30
PIERRE         CLOUDY    21  17  84 SE10      29.93F FOG     WCI  10
WINNER         FAIR      31  18  58 S7        29.95F WCI  24
SIOUX FALLS    CLOUDY    32  29  88 S12       30.06S FOG     WCI  23
OMAHA          DRZL/FOG  33  32  96 S9        30.13S VSB 1   WCI  25
GRAND ISLAND   FOG       28  28 100 S5        30.08R VSB<1/4 WCI  23
KANSAS CITY    PTSUNNY   34  31  88 S13       30.16S WCI  25
WICHITA        PTSUNNY   38  35  89 S12       30.15F FOG     WCI  30
HAYS           SUNNY     28  19  69 W5        30.08F WCI  23
LIBERAL        CLOUDY    28  25  86 SW12      30.11S VSB 1/4 WCI  18
GOODLAND       CLEAR     33  26  75 W7        30.02F WCI  27
$$



USA.gov is the U.S. government's official web portal to all federal, state and local government web resources and services.